{"data":{"norad_id":58068,"epoch":"2026-05-24T21:21:27.499968Z","epoch_age_seconds":74725,"freshness":"FRESH","line1":"1 58068U 23158T   26144.88990162 -.00000918  00000+0 -23848-4 0  9994","line2":"2 58068  43.0045 320.1277 0001714 262.6348  97.4309 15.27572826145187","mean_motion":15.27572826,"eccentricity":0.0001714,"inclination_deg":43.0045,"raan_deg":320.1277,"arg_perigee_deg":262.6348,"mean_anomaly_deg":97.4309,"bstar":-2.3848e-5,"rev_number":14518,"period_min":94.26719142227,"perigee_km":481.89456668175,"apogee_km":484.24658863937,"semimajor_km":6861.2075776606,"source":"CELESTRAK","updated_at":"2026-05-25T13:38:18.502653Z"}}